N9XRG Weather Reports


Display with metric or nautical units.
time (UTC)temp
F
wind
direction
speed
MPH
gust
MPH
rain 1hr
in
rain 24hr
in
rain mn
in
humidity
%
barometer
mb
20260507044947 41 125 2.0 3.0 0.00 0.00 0.00 82 1014.4
20260507044444 41 94 2.0 2.0 0.00 0.00 0.00 81 1014.6
20260507043940 41 102 2.0 2.0 0.00 0.00 0.00 81 1014.5
20260507043436 41 112 2.0 3.0 0.00 0.00 0.00 82 1014.5
20260507042932 41 106 2.0 3.0 0.00 0.00 0.00 83 1014.4
20260507042429 41 109 2.0 3.0 0.00 0.00 0.00 85 1014.5
20260507041925 41 111 3.0 3.0 0.00 0.00 0.00 88 1014.6
20260507041422 41 99 2.0 2.0 0.00 0.00 0.00 88 1014.5
20260507040920 41 105 2.0 3.0 0.00 0.00 0.00 88 1014.5
20260507040415 41 80 2.0 3.0 0.00 0.00 0.00 88 1014.4
20260507035911 41 108 2.0 3.0 0.00 0.01 0.01 87 1014.5
20260507035408 41 106 2.0 2.0 0.00 0.01 0.01 87 1014.6
20260507034904 41 117 2.0 2.0 0.00 0.01 0.01 87 1014.3
20260507034401 41 115 2.0 2.0 0.00 0.01 0.01 88 1014.5
20260507033859 41 101 2.0 2.0 0.00 0.01 0.01 88 1014.4
20260507033358 42 110 2.0 2.0 0.00 0.01 0.01 87 1014.4
20260507032854 42 109 2.0 2.0 0.00 0.01 0.01 86 1014.3
20260507032351 42 108 2.0 2.0 0.00 0.01 0.01 85 1014.4
20260507031847 42 96 2.0 2.0 0.00 0.01 0.01 85 1014.4
20260507031344 43 112 2.0 2.0 0.00 0.01 0.01 82 1014.2
20260507030840 43 94 2.0 2.0 0.00 0.01 0.01 82 1014.3
20260507030338 44 92 2.0 2.0 0.00 0.01 0.01 83 1014.1
20260507025834 44 104 2.0 2.0 0.00 0.01 0.01 81 1014.2
20260507025332 45 99 2.0 2.0 0.00 0.01 0.01 80 1014.3
20260507024830 45 87 2.0 2.0 0.00 0.01 0.01 77 1014.3
20260507024327 46 92 2.0 2.0 0.00 0.01 0.01 75 1014.1
20260507023822 46 99 2.0 2.0 0.00 0.01 0.01 74 1014.2
20260507023319 47 106 2.0 2.0 0.00 0.01 0.01 71 1014.1
20260507022817 47 123 1.0 3.0 0.00 0.01 0.01 69 1014.3
20260507022313 47 88 2.0 2.0 0.00 0.01 0.01 70 1014.2
20260507021809 48 89 2.0 2.0 0.00 0.01 0.01 67 1014.1
20260507021305 48 106 2.0 2.0 0.00 0.01 0.01 68 1014.2
20260507020803 49 107 2.0 2.0 0.00 0.01 0.01 66 1014.0
20260507020259 49 113 2.0 2.0 0.00 0.01 0.01 66 1014.2
20260507015757 49 99 2.0 2.0 0.00 0.01 0.01 74 1014.2
20260507015254 49 108 2.0 2.0 0.00 0.01 0.01 70 1014.1
20260507014751 49 114 2.0 2.0 0.00 0.01 0.01 69 1014.2
20260507014247 49 107 2.0 2.0 0.00 0.01 0.01 69 1014.1
20260507013744 49 105 2.0 2.0 0.00 0.01 0.01 70 1013.9
20260507013241 49 105 2.0 2.0 0.00 0.01 0.01 69 1013.9
20260507012738 50 102 2.0 2.0 0.00 0.01 0.01 69 1013.9
20260507012234 50 106 2.0 2.0 0.00 0.01 0.01 69 1013.6
20260507011732 50 109 2.0 2.0 0.00 0.01 0.01 68 1013.7
20260507011228 50 96 2.0 3.0 0.00 0.01 0.01 63 1013.8
20260507010727 50 110 2.0 3.0 0.00 0.01 0.01 61 1013.8
20260507010224 50 117 2.0 2.0 0.00 0.01 0.01 60 1013.6
20260507005721 50 109 2.0 2.0 0.00 0.01 0.01 60 1013.6
20260507005217 51 92 2.0 3.0 0.00 0.01 0.01 62 1013.3
20260507004714 51 109 2.0 2.0 0.00 0.01 0.01 58 1013.3
20260507004212 51 115 2.0 3.0 0.00 0.01 0.01 58 1013.5
20260507003708 52 89 2.0 3.0 0.00 0.01 0.01 60 1013.2
20260507003203 52 111 2.0 2.0 0.00 0.01 0.01 59 1013.1
20260507002659 52 107 2.0 2.0 0.00 0.01 0.01 57 1013.1
20260507002156 53 96 2.0 2.0 0.00 0.01 0.01 57 1012.9
20260507001652 53 103 2.0 2.0 0.00 0.01 0.01 52 1013.3
20260507001150 53 105 2.0 3.0 0.00 0.01 0.01 51 1013.1
20260507000646 53 98 2.0 3.0 0.00 0.01 0.01 52 1013.1
20260507000142 54 116 2.0 4.0 0.00 0.01 0.01 50 1013.2
20260506235639 54 87 2.0 3.0 0.00 0.01 0.01 50 1013.2
20260506235139 55 106 2.0 3.0 0.00 0.01 0.01 47 1013.1
20260506234637 55 112 2.0 2.0 0.00 0.01 0.01 48 1013.1
20260506234134 55 103 3.0 6.0 0.00 0.01 0.01 46 1012.9
20260506233631 55 77 3.0 4.0 0.00 0.01 0.01 45 1013.3
20260506233128 55 104 3.0 5.0 0.00 0.01 0.01 48 1013.3
20260506232624 55 119 3.0 4.0 0.00 0.01 0.01 44 1013.2
20260506232119 56 114 3.0 4.0 0.00 0.01 0.01 46 1013.3
20260506231617 56 107 2.0 4.0 0.00 0.01 0.01 48 1013.3
20260506231115 56 73 3.0 4.0 0.00 0.01 0.01 44 1013.3
20260506230612 56 61 4.0 4.0 0.00 0.01 0.01 44 1013.1
20260506230109 56 87 3.0 3.0 0.00 0.01 0.01 48 1013.2
20260506225605 56 85 2.0 6.0 0.00 0.01 0.01 44 1013.2
20260506225101 56 95 3.0 4.0 0.00 0.01 0.01 44 1013.1
20260506224559 56 139 1.0 4.0 0.00 0.01 0.01 46 1012.9
20260506224055 57 91 3.0 4.0 0.00 0.01 0.01 45 1012.8
20260506223551 57 143 5.0 5.0 0.00 0.01 0.01 43 1013.3
20260506223047 57 93 2.0 4.0 0.00 0.01 0.01 43 1013.1
20260506222544 57 94 1.0 5.0 0.00 0.01 0.01 43 1013.2
20260506222041 57 108 2.0 4.0 0.00 0.01 0.01 41 1013.1
20260506221538 58 130 3.0 5.0 0.00 0.01 0.01 43 1013.1
20260506221036 58 107 3.0 4.0 0.00 0.01 0.01 45 1012.9
20260506220532 57 103 4.0 4.0 0.00 0.01 0.01 44 1012.9
20260506220028 57 130 6.0 10.0 0.00 0.01 0.01 41 1013.1
20260506215525 58 88 3.0 4.0 0.00 0.01 0.01 45 1012.8
20260506215020 58 126 6.0 6.0 0.00 0.01 0.01 43 1012.9
20260506214518 57 89 2.0 4.0 0.00 0.01 0.01 44 1013.2
20260506214015 57 57 3.0 5.0 0.00 0.01 0.01 43 1012.6
20260506213513 57 81 4.0 4.0 0.00 0.01 0.01 41 1012.7
20260506213010 57 129 5.0 5.0 0.00 0.01 0.01 42 1012.9
20260506212506 57 67 3.0 6.0 0.00 0.01 0.01 43 1013.1
20260506212001 58 156 3.0 8.0 0.00 0.01 0.01 42 1012.9
20260506211457 58 79 2.0 6.0 0.00 0.01 0.01 40 1013.1
20260506210954 59 72 4.0 8.0 0.00 0.01 0.01 41 1013.1
20260506210451 58 89 4.0 6.0 0.00 0.01 0.01 41 1012.9
20260506205948 58 94 3.0 6.0 0.00 0.01 0.01 41 1012.8
20260506205444 59 103 3.0 5.0 0.00 0.01 0.01 40 1012.9
20260506204940 59 11 3.0 4.0 0.00 0.01 0.01 38 1013.1
20260506204438 59 77 3.0 7.0 0.00 0.01 0.01 41 1013.2
20260506203935 59 68 3.0 6.0 0.00 0.01 0.01 41 1013.2
20260506203432 59 38 4.0 8.0 0.00 0.01 0.01 40 1013.2
20260506202929 59 87 4.0 6.0 0.00 0.01 0.01 46 1013.2
20260506202427 60 99 2.0 7.0 0.00 0.01 0.01 38 1013.1
20260506201923 59 73 4.0 7.0 0.00 0.01 0.01 38 1012.9
20260506201421 59 31 5.0 10.0 0.00 0.01 0.01 42 1013.2
20260506200917 59 73 4.0 6.0 0.00 0.01 0.01 43 1013.2
20260506200413 59 127 5.0 6.0 0.00 0.01 0.01 43 1013.1
20260506195910 59 65 2.0 6.0 0.00 0.01 0.01 42 1013.3
20260506195407 59 51 2.0 4.0 0.00 0.01 0.01 40 1013.2
20260506194903 58 97 2.0 3.0 0.00 0.01 0.01 44 1013.3
20260506194400 58 124 4.0 7.0 0.00 0.01 0.01 42 1013.4
20260506193857 59 124 4.0 6.0 0.00 0.01 0.01 41 1013.5
20260506193354 58 117 4.0 9.0 0.00 0.01 0.01 41 1013.4
20260506192850 58 93 3.0 5.0 0.00 0.01 0.01 41 1013.4
20260506192347 58 122 4.0 5.0 0.00 0.01 0.01 43 1013.4
20260506191845 57 106 4.0 6.0 0.00 0.01 0.01 45 1013.6
20260506191341 57 88 2.0 6.0 0.00 0.01 0.01 43 1013.5
20260506190838 57 71 3.0 5.0 0.00 0.01 0.01 44 1013.4
20260506190334 57 51 3.0 6.0 0.00 0.01 0.01 39 1013.4
20260506185831 57 59 3.0 5.0 0.00 0.01 0.01 46 1013.5
20260506185328 56 115 3.0 5.0 0.00 0.01 0.01 45 1013.4
20260506184825 56 78 2.0 4.0 0.00 0.01 0.01 43 1013.6
20260506184322 56 132 3.0 5.0 0.00 0.01 0.01 45 1013.4
20260506183820 56 128 3.0 6.0 0.00 0.01 0.01 43 1013.7
20260506183314 56 84 3.0 6.0 0.00 0.01 0.01 42 1013.3
20260506182812 56 121 2.0 4.0 0.00 0.01 0.01 42 1013.3
20260506182309 56 101 3.0 4.0 0.00 0.01 0.01 44 1013.5
20260506181807 56 93 3.0 5.0 0.00 0.01 0.01 45 1013.7
20260506181305 56 112 2.0 6.0 0.00 0.01 0.01 43 1013.7
20260506180802 55 99 2.0 3.0 0.00 0.01 0.01 46 1013.4
20260506180257 55 108 2.0 4.0 0.00 0.01 0.01 45 1013.7
20260506175754 56 66 3.0 5.0 0.00 0.01 0.01 44 1013.7
20260506175251 57 117 4.0 5.0 0.00 0.01 0.01 44 1013.7
20260506174748 57 81 3.0 5.0 0.00 0.01 0.01 44 1013.3
20260506174245 57 81 1.0 4.0 0.00 0.01 0.01 41 1013.3
20260506173743 57 96 5.0 6.0 0.00 0.01 0.01 43 1013.4
20260506173240 57 109 2.0 5.0 0.00 0.01 0.01 42 1013.3
20260506172736 57 92 4.0 5.0 0.00 0.01 0.01 44 1013.4
20260506172233 57 109 2.0 4.0 0.00 0.01 0.01 40 1013.6
20260506171731 57 82 4.0 9.0 0.00 0.01 0.01 45 1013.3
20260506171228 56 44 5.0 6.0 0.00 0.01 0.01 44 1013.3
20260506170725 57 14 2.0 6.0 0.00 0.01 0.01 41 1013.3
20260506170222 57 131 4.0 4.0 0.00 0.01 0.01 42 1013.4
20260506165720 57 86 4.0 6.0 0.00 0.01 0.01 45 1013.2
20260506165217 57 51 2.0 7.0 0.00 0.01 0.01 42 1013.2
20260506164714 57 72 4.0 4.0 0.00 0.01 0.01 43 1013.5
20260506164211 57 86 3.0 4.0 0.00 0.01 0.01 43 1013.3
20260506163707 56 50 3.0 5.0 0.00 0.01 0.01 43 1013.4
20260506163202 56 52 4.0 6.0 0.00 0.01 0.01 41 1013.3
20260506162659 56 136 3.0 4.0 0.00 0.01 0.01 42 1013.3
20260506162156 56 106 3.0 5.0 0.00 0.01 0.01 42 1013.5
20260506161653 57 94 2.0 4.0 0.00 0.01 0.01 43 1013.5
20260506161150 57 72 4.0 5.0 0.00 0.01 0.01 44 1013.3
20260506160648 57 51 2.0 5.0 0.00 0.01 0.01 41 1013.4
20260506160145 57 32 4.0 4.0 0.00 0.01 0.01 40 1013.4
20260506155643 57 88 3.0 9.0 0.00 0.01 0.01 41 1013.6
20260506155140 58 23 4.0 4.0 0.00 0.01 0.01 40 1013.6
20260506153236 59 86 2.0 5.0 0.00 0.01 0.01 35 1013.4
20260506152733 58 123 2.0 6.0 0.00 0.01 0.01 38 1013.5
20260506152230 59 63 2.0 6.0 0.00 0.01 0.01 40 1013.5
20260506151729 59 61 3.0 6.0 0.00 0.01 0.01 43 1013.4
20260506151225 57 44 4.0 7.0 0.00 0.01 0.01 41 1013.6
20260506150722 57 125 4.0 7.0 0.00 0.01 0.01 44 1013.2
20260506150219 57 133 1.0 4.0 0.00 0.01 0.01 41 1013.3
20260506145716 57 119 2.0 5.0 0.00 0.01 0.01 48 1013.1
20260506145213 58 56 3.0 4.0 0.00 0.01 0.01 44 1013.1
20260506144710 58 121 4.0 7.0 0.00 0.01 0.01 43 1013.1
20260506144207 57 107 1.0 4.0 0.00 0.01 0.01 43 1013.2
20260506143704 55 119 2.0 4.0 0.00 0.01 0.01 45 1012.9
20260506143202 56 73 3.0 4.0 0.00 0.01 0.01 41 1013.2
20260506142701 57 72 2.0 7.0 0.00 0.01 0.01 44 1013.2
20260506142158 57 71 4.0 5.0 0.00 0.01 0.01 46 1012.9
20260506141656 56 19 2.0 6.0 0.00 0.01 0.01 46 1012.7
20260506141154 55 6 4.0 6.0 0.00 0.01 0.01 47 1012.7
20260506140651 55 47 5.0 6.0 0.00 0.01 0.01 48 1012.9
20260506140148 54 27 5.0 5.0 0.00 0.01 0.01 50 1012.9
20260506135645 55 86 4.0 6.0 0.00 0.01 0.01 47 1012.4
20260506135141 55 112 2.0 4.0 0.00 0.01 0.01 51 1012.7
20260506134638 55 75 2.0 4.0 0.00 0.01 0.01 51 1012.7
20260506134133 55 48 2.0 4.0 0.00 0.01 0.01 53 1012.6
20260506133631 54 43 4.0 4.0 0.00 0.01 0.01 53 1012.9
20260506133128 53 87 2.0 4.0 0.00 0.01 0.01 51 1012.7
20260506132625 54 66 2.0 5.0 0.00 0.01 0.01 51 1012.6
20260506132122 54 88 2.0 4.0 0.00 0.01 0.01 56 1012.7
20260506131620 53 58 3.0 5.0 0.00 0.01 0.01 56 1012.6
20260506131116 53 110 3.0 4.0 0.00 0.01 0.01 59 1012.5
20260506130613 53 91 2.0 4.0 0.00 0.01 0.01 57 1012.5
20260506130110 53 42 2.0 5.0 0.00 0.01 0.01 57 1012.3
20260506125608 52 117 3.0 3.0 0.00 0.01 0.01 61 1012.3
20260506125106 50 98 1.0 3.0 0.00 0.01 0.01 67 1012.0
20260506124603 49 75 3.0 3.0 0.00 0.01 0.01 71 1012.4
20260506124101 48 94 2.0 3.0 0.00 0.01 0.01 75 1012.1
20260506123558 48 99 3.0 4.0 0.00 0.01 0.01 72 1011.9
20260506123057 48 45 4.0 4.0 0.00 0.01 0.01 71 1011.9
20260506122553 48 115 1.0 3.0 0.00 0.01 0.01 73 1012.0
20260506122051 48 59 4.0 4.0 0.00 0.01 0.01 76 1012.1
20260506121548 47 71 2.0 3.0 0.00 0.01 0.01 77 1011.9
20260506121044 47 71 1.0 4.0 0.00 0.01 0.01 79 1012.0
20260506120543 46 103 2.0 4.0 0.00 0.01 0.01 83 1011.9
20260506120040 46 86 2.0 3.0 0.00 0.01 0.01 83 1012.1
20260506115538 46 98 2.0 4.0 0.00 0.01 0.01 86 1011.8
20260506115036 46 59 2.0 4.0 0.00 0.01 0.01 90 1011.4
20260506114533 45 98 2.0 3.0 0.00 0.01 0.01 95 1011.5
20260506114031 45 105 2.0 3.0 0.00 0.01 0.01 96 1011.6
20260506113529 44 96 2.0 3.0 0.00 0.01 0.01 96 1011.3
20260506113026 44 97 3.0 3.0 0.00 0.01 0.01 96 1011.5
20260506112522 43 85 2.0 2.0 0.00 0.01 0.01 96 1011.3
20260506112020 43 98 2.0 3.0 0.00 0.01 0.01 96 1011.1
20260506111518 44 107 2.0 3.0 0.00 0.01 0.01 96 1011.1
20260506111015 44 104 2.0 3.0 0.00 0.01 0.01 96 1010.6
20260506110512 44 105 2.0 3.0 0.00 0.01 0.01 96 1010.9
20260506110009 44 107 3.0 4.0 0.00 0.01 0.01 96 1010.8
20260506105505 45 117 2.0 2.0 0.00 0.01 0.01 96 1010.6
20260506105003 45 75 2.0 2.0 0.00 0.01 0.01 96 1010.5
20260506104501 45 85 2.0 2.0 0.00 0.01 0.01 96 1010.6
20260506103958 45 77 2.0 3.0 0.00 0.01 0.01 96 1010.6
20260506103455 45 112 2.0 2.0 0.00 0.01 0.01 96 1010.4
20260506102952 45 111 2.0 4.0 0.00 0.01 0.01 96 1010.2
20260506102450 45 101 2.0 3.0 0.00 0.01 0.01 96 1010.0
20260506101947 45 74 1.0 3.0 0.00 0.01 0.01 96 1010.1
20260506101444 45 95 2.0 3.0 0.00 0.01 0.01 96 1010.5
20260506100941 45 95 2.0 3.0 0.00 0.01 0.01 96 1010.2
20260506100439 45 122 3.0 3.0 0.00 0.01 0.01 96 1009.9
20260506095937 45 156 0.0 4.0 0.00 0.01 0.01 96 1009.8
20260506095435 45 107 2.0 3.0 0.00 0.01 0.01 96 1009.9
20260506094931 45 101 2.0 3.0 0.00 0.01 0.01 96 1010.0
20260506094430 45 97 2.0 3.0 0.00 0.01 0.01 96 1010.1
20260506093927 45 105 2.0 3.0 0.00 0.01 0.01 96 1010.1
20260506093425 45 96 2.0 2.0 0.00 0.01 0.01 96 1010.1
20260506092923 45 87 2.0 2.0 0.00 0.01 0.01 96 1010.0
20260506092420 45 107 2.0 2.0 0.00 0.01 0.01 96 1010.0
20260506091916 45 100 2.0 3.0 0.00 0.01 0.01 96 1010.1
20260506091415 45 99 2.0 2.0 0.00 0.01 0.01 96 1010.0
20260506090911 45 92 2.0 3.0 0.00 0.01 0.01 96 1009.8
20260506090409 45 100 2.0 2.0 0.00 0.01 0.01 96 1010.3
20260506085906 45 89 2.0 2.0 0.00 0.01 0.01 96 1010.3
20260506085402 45 95 2.0 3.0 0.00 0.01 0.01 96 1010.0
20260506084859 45 109 2.0 2.0 0.00 0.01 0.01 96 1009.9
20260506084355 45 107 2.0 3.0 0.00 0.01 0.01 96 1010.0
20260506083852 45 117 2.0 3.0 0.00 0.01 0.01 96 1010.0
20260506083350 45 88 2.0 2.0 0.00 0.01 0.01 96 1009.8
20260506082847 44 117 3.0 4.0 0.00 0.01 0.01 96 1009.5
20260506082344 44 106 2.0 2.0 0.00 0.01 0.01 96 1009.7
20260506081839 44 101 2.0 3.0 0.00 0.01 0.01 96 1009.9
20260506081338 44 100 1.0 2.0 0.00 0.01 0.01 96 1009.8
20260506080835 44 109 3.0 3.0 0.00 0.01 0.01 96 1009.7
20260506080331 45 118 3.0 3.0 0.00 0.01 0.01 96 1009.9
20260506073316 45 108 2.0 3.0 0.00 0.01 0.01 96 1008.6
20260506072812 45 99 2.0 2.0 0.00 0.01 0.01 96 1009.2
20260506072310 45 81 2.0 3.0 0.00 0.01 0.01 96 1009.6
20260506071807 45 95 2.0 2.0 0.00 0.01 0.01 96 1009.7
20260506071305 45 94 1.0 2.0 0.00 0.01 0.01 96 1009.6
20260506070802 45 89 2.0 3.0 0.00 0.01 0.01 96 1009.6
20260506070259 45 107 2.0 3.0 0.00 0.01 0.01 96 1009.5
20260506062236 45 106 2.0 3.0 0.00 0.00 0.00 95 1009.6
20260506061732 45 98 2.0 2.0 0.00 0.00 0.00 95 1009.9
20260506061230 45 110 2.0 3.0 0.00 0.00 0.00 95 1010.0
20260506060728 45 81 2.0 3.0 0.00 0.00 0.00 96 1010.6
20260506060225 45 106 2.0 3.0 0.00 0.00 0.00 96 1010.2
20260506051157 45 98 2.0 2.0 0.00 0.00 0.00 96 1010.3
20260506050655 45 107 2.0 2.0 0.00 0.00 0.00 96 1010.3
20260506050152 45 110 2.0 3.0 0.00 0.00 0.00 96 1010.5